This is the latest recevied weather packets stored in our database for station/object W9KHP-1. If no packets are shown the sender has not sent any weather packets the latest 10 day(s).
| Time | Temp. | Humidity | Pressure | Rain* | Wind** | Luminosity | Snow |
|---|---|---|---|---|---|---|---|
| 1777295737 | 17.78° C | 78% | 1016.2 hPa | 0 mm | - | 29 W/m² | - |
| 1777295435 | 17.78° C | 80% | 1015.9 hPa | 0 mm | - | 38 W/m² | - |
| 1777295132 | 17.22° C | 79% | 1015.8 hPa | 0 mm | - | 44 W/m² | - |
| 1777294829 | 17.22° C | 80% | 1015.9 hPa | 0 mm | - | 49 W/m² | - |
| 1777294529 | 17.22° C | 79% | 1015.6 hPa | 0 mm | - | 60 W/m² | - |
| 1777294226 | 16.67° C | 80% | 1015.4 hPa | 0 mm | - | 56 W/m² | - |
| 1777293923 | 16.67° C | 82% | 1015.3 hPa | 0 mm | - | 60 W/m² | - |
| 1777293619 | 16.67° C | 83% | 1015.1 hPa | 0 mm | - | 60 W/m² | - |
| 1777293314 | 16.67° C | 83% | 1015.1 hPa | 0 mm | - | 48 W/m² | - |
| 1777293009 | 16.67° C | 82% | 1015.2 hPa | 0 mm | - | 42 W/m² | - |
| 1777292703 | 16.67° C | 82% | 1015.2 hPa | 0 mm | - | 38 W/m² | - |
| 1777292400 | 16.11° C | 82% | 1015 hPa | 0 mm | - | 37 W/m² | - |
| 1777292096 | 16.11° C | 82% | 1015.5 hPa | 0 mm | - | 41 W/m² | - |
| 1777291793 | 16.11° C | 82% | 1015.3 hPa | 0 mm | - | 40 W/m² | - |
| 1777291489 | 16.11° C | 82% | 1015.2 hPa | 0 mm | - | 35 W/m² | - |
| 1777291186 | 16.11° C | 82% | 1015.4 hPa | 0 mm | - | 29 W/m² | - |
| 1777290883 | 16.11° C | 83% | 1015.4 hPa | 0 mm | - | 24 W/m² | - |
| 1777290579 | 15.56° C | 83% | 1015.3 hPa | 0 mm | - | 20 W/m² | - |
| 1777290277 | 15.56° C | 83% | 1015.3 hPa | 0 mm | - | 15 W/m² | - |
| 1777289973 | 15.56° C | 84% | 1015.2 hPa | 0 mm | - | 12 W/m² | - |
* Rain latest hour (hover to see other rain measurements)
** Current wind speed in m/s (hover to see current wind gust speed)